This is the latest recevied weather packets stored in our database for station/object W2MMD-13. If no packets are shown the sender has not sent any weather packets the latest 10 day(s).
| Time | Temp. | Humidity | Pressure | Rain* | Wind** | Luminosity | Snow |
|---|---|---|---|---|---|---|---|
| 1777498719 | 15.56° C | 57% | - | 0 mm | - | - | - |
| 1777498131 | 15.56° C | 56% | - | 0 mm | - | - | - |
| 1777498119 | 15.56° C | 56% | - | 0 mm | - | - | - |
| 1777497519 | 15.56° C | 56% | - | 0 mm | - | - | - |
| 1777496931 | 15.56° C | 55% | - | 0 mm | - | - | - |
| 1777496919 | 15.56° C | 55% | - | 0 mm | - | - | - |
| 1777496319 | 16.11° C | 56% | - | 0 mm | - | - | - |
| 1777495719 | 16.11° C | 57% | - | 0 mm | - | - | - |
| 1777495119 | 15.56° C | 55% | - | 0 mm | - | - | - |
| 1777494551 | 15.56° C | 56% | - | 0 mm | - | - | - |
| 1777494519 | 15.56° C | 56% | - | 0 mm | - | - | - |
| 1777493974 | 15.56° C | 55% | - | 0 mm | - | - | - |
| 1777493931 | 15.56° C | 55% | - | 0 mm | - | - | - |
| 1777493919 | 15.56° C | 55% | - | 0 mm | - | - | - |
| 1777493319 | 15.56° C | 59% | - | 0 mm | - | - | - |
| 1777492719 | 15.56° C | 59% | - | 0 mm | - | - | - |
| 1777492119 | 15.56° C | 58% | - | 0 mm | - | - | - |
| 1777491530 | 15° C | 61% | - | 0 mm | - | - | - |
| 1777491519 | 15° C | 60% | - | 0 mm | - | - | - |
| 1777490931 | 15.56° C | 57% | - | 0 mm | - | - | - |
| 1777490919 | 15.56° C | 56% | - | 0 mm | - | - | - |
| 1777490319 | 16.11° C | 54% | - | 0 mm | - | - | - |
| 1777489719 | 16.11° C | 55% | - | 0 mm | - | - | - |
| 1777489119 | 16.67° C | 56% | - | 0 mm | - | - | - |
| 1777488530 | 16.67° C | 56% | - | 0 mm | - | - | - |
* Rain latest hour (hover to see other rain measurements)
** Current wind speed in m/s (hover to see current wind gust speed)